This demonstration page uses our WeatherBlox Daily Observations layout. Learn more.

Left ArrowRight Arrow

Hourly Observations for June 28, 2021

Temp ( °F °C ) Dew Point ( °F °C ) Humidity (%) Winds ( mph kmh ) Pressure ( in mb ) Visibility ( mi km ) Precip ( " mm )
12:59 am 00:59 Clear 76 24.4 71 21.7 85 85 SSE 7 11 30.23 1024 10 16 0.00 0.00
1:59 am 01:59 Clear 76 24.4 71 21.7 85 85 S 6 9 30.24 1024 10 16 0.00 0.00
2:59 am 02:59 Clear 76 24.4 71 21.7 85 85 Calm 30.24 1024 10 16 0.00 0.00
3:59 am 03:59 Mostly Clear 75 23.9 71 21.7 88 88 Calm 30.25 1024 10 16 0.00 0.00
4:59 am 04:59 Mostly Clear 72 22.2 70 21.1 94 94 Calm 30.26 1025 8 13 0.00 0.00
5:59 am 05:59 Mostly Sunny 72 22.2 69 20.6 91 91 Calm 30.27 1025 7 11 0.00 0.00
6:20 am 06:20 Mostly Sunny 72 22.2 70 21.1 94 94 SE 3 6 30.28 1025 7 11 0.00 0.00
6:37 am 06:37 Mostly Sunny 73 22.8 70 21.1 90 90 Calm 30.28 1025 7 11 0.00 0.00
6:59 am 06:59 Mostly Sunny 75 23.9 72 22.2 90 90 Calm 30.29 1026 8 13 0.00 0.00
7:59 am 07:59 Mostly Sunny 79 26.1 72 22.2 79 79 Calm 30.30 1026 10 16 0.00 0.00
8:59 am 08:59 Mostly Sunny 82 27.8 70 21.1 67 67 VRB 5 7 30.30 1026 10 16 0.00 0.00
9:59 am 09:59 Partly Cloudy 83 28.3 70 21.1 65 65 SW 5 7 30.30 1026 10 16 0.00 0.00
10:59 am 10:59 Partly Cloudy 85 29.4 68 20 57 57 VRB 3 6 30.29 1026 10 16 0.00 0.00
11:59 am 11:59 Partly Cloudy 84 28.9 71 21.7 65 65 ENE 9 15 30.29 1026 10 16 0.00 0.00
12:59 pm 12:59 Partly Cloudy 87 30.6 72 22.2 61 61 E 12 19 30.29 1026 10 16 0.00 0.00
1:59 pm 13:59 Partly Cloudy 88 31.1 70 21.1 55 55 SSE 10 17 30.27 1025 10 16 0.00 0.00
2:59 pm 14:59 Partly Cloudy 89 31.7 68 20 50 50 SSE 12 19 30.27 1025 10 16 0.00 0.00
3:59 pm 15:59 Sunny 88 31.1 70 21.1 55 55 S 10 17 30.26 1025 10 16 0.00 0.00
4:59 pm 16:59 Mostly Sunny 87 30.6 71 21.7 59 59 SSE 10 17 30.26 1025 10 16 0.00 0.00
5:59 pm 17:59 Partly Cloudy 86 30 71 21.7 61 61 SE 8 13 30.24 1024 10 16 0.00 0.00
6:59 pm 18:59 Partly Cloudy 85 29.4 70 21.1 61 61 S 8 13 30.25 1024 10 16 0.00 0.00
7:59 pm 19:59 Mostly Sunny 83 28.3 71 21.7 67 67 SSE 9 15 30.25 1025 10 16 0.00 0.00
8:59 pm 20:59 Mostly Clear 81 27.2 72 22.2 74 74 SSE 8 13 30.27 1025 10 16 0.00 0.00
9:59 pm 21:59 Clear 80 26.7 73 22.8 79 79 SSE 7 11 30.29 1026 10 16 0.00 0.00
10:59 pm 22:59 Clear 79 26.1 73 22.8 82 82 S 5 7 30.29 1026 10 16 0.00 0.00
11:59 pm 23:59 Clear 79 26.1 72 22.2 79 79 S 7 11 30.29 1026 10 16 0.00 0.00

Powered by AerisWeather